Terminal Aerodrome Forecast
Issued by NWS Aberdeen, SD

Home | Current Version | Previous Version | Text Only | Print | Product List | Glossary On
Versions: 1 2 3 4 5 6 7 8 9 10 11 12 13 14 15 16 17 18 19 20 21 22 23 24 25 26 27 28 29 30 31 32 33 34 35 36 37 38 39 40 41 42 43 44 45 46 47 48 49 50
000
FTAK31 PAFA 272101 AAC
TAFABR
TAF AMD
PABR 272101Z 2721/2818 24008KT 2SM BR OVC003
     FM272300 15013KT P6SM SCT008 OVC010
     FM280700 22013KT 4SM -SHRA BR SCT004 BKN012 OVC025
     FM281400 30015KT 2SM -SHRA BR SCT004 OVC012=

USA.gov is the U.S. government's official web portal to all federal, state and local government web resources and services.